| time (UTC) | temp F | wind direction | speed MPH | gust MPH | rain 1hr in | rain 24hr in | rain mn in | humidity % | barometer mb |
| 20260510120025 | 68 | 339 | 1.0 | 2.0 | 0.00 | 0.00 | 0.00 | 89 | 1016.0 |
| 20260510115504 | 68 | 341 | 1.0 | 2.0 | 0.00 | 0.00 | 0.00 | 89 | 1016.0 |
| 20260510115004 | 68 | 8 | 1.0 | 2.0 | 0.00 | 0.00 | 0.00 | 89 | 1015.8 |
| 20260510114504 | 68 | 348 | 1.0 | 3.0 | 0.00 | 0.00 | 0.00 | 89 | 1015.6 |
| 20260510114004 | 68 | 341 | 2.0 | 3.0 | 0.00 | 0.00 | 0.00 | 89 | 1015.4 |
| 20260510113504 | 68 | 344 | 1.0 | 3.0 | 0.00 | 0.00 | 0.00 | 89 | 1015.3 |
| 20260510113004 | 68 | 0 | 0.0 | 0.0 | 0.00 | 0.00 | 0.00 | 89 | 1015.1 |
| 20260510112504 | 68 | 0 | 0.0 | 0.0 | 0.00 | 0.00 | 0.00 | 89 | 1015.0 |
| 20260510112004 | 68 | 0 | 0.0 | 0.0 | 0.00 | 0.00 | 0.00 | 89 | 1014.9 |
| 20260510111525 | 68 | 143 | 0.0 | 1.0 | 0.00 | 0.00 | 0.00 | 89 | 1014.9 |
| 20260510111004 | 68 | 156 | 1.0 | 4.0 | 0.00 | 0.00 | 0.00 | 89 | 1014.6 |
| 20260510110504 | 68 | 151 | 2.0 | 4.0 | 0.00 | 0.00 | 0.00 | 89 | 1014.5 |
| 20260510110004 | 69 | 129 | 1.0 | 4.0 | 0.00 | 0.00 | 0.00 | 89 | 1014.6 |
| 20260510105525 | 69 | 89 | 1.0 | 2.0 | 0.00 | 0.00 | 0.00 | 89 | 1014.7 |
| 20260510105004 | 69 | 316 | 1.0 | 3.0 | 0.00 | 0.00 | 0.00 | 89 | 1014.8 |
| 20260510104504 | 69 | 334 | 1.0 | 3.0 | 0.00 | 0.00 | 0.00 | 89 | 1014.8 |
| 20260510104004 | 69 | 344 | 1.0 | 4.0 | 0.00 | 0.00 | 0.00 | 89 | 1014.8 |
| 20260510103504 | 69 | 342 | 1.0 | 4.0 | 0.00 | 0.00 | 0.00 | 89 | 1014.7 |
| 20260510103004 | 69 | 4 | 1.0 | 3.0 | 0.00 | 0.00 | 0.00 | 89 | 1014.7 |
| 20260510102504 | 69 | 360 | 2.0 | 3.0 | 0.00 | 0.00 | 0.00 | 89 | 1014.8 |
| 20260510102025 | 69 | 343 | 2.0 | 4.0 | 0.00 | 0.00 | 0.00 | 89 | 1014.6 |
| 20260510101504 | 69 | 341 | 1.0 | 4.0 | 0.00 | 0.00 | 0.00 | 89 | 1014.7 |
| 20260510101004 | 69 | 354 | 1.0 | 2.0 | 0.00 | 0.00 | 0.00 | 89 | 1014.6 |
| 20260510100504 | 69 | 360 | 0.0 | 2.0 | 0.00 | 0.00 | 0.00 | 89 | 1014.4 |
| 20260510100004 | 69 | 5 | 1.0 | 2.0 | 0.00 | 0.00 | 0.00 | 89 | 1014.3 |
| 20260510095504 | 69 | 5 | 1.0 | 2.0 | 0.00 | 0.00 | 0.00 | 89 | 1014.2 |
| 20260510095004 | 69 | 0 | 0.0 | 0.0 | 0.00 | 0.00 | 0.00 | 89 | 1013.8 |
| 20260510094504 | 69 | 5 | 0.0 | 1.0 | 0.00 | 0.00 | 0.00 | 89 | 1013.6 |
| 20260510094004 | 69 | 5 | 0.0 | 2.0 | 0.00 | 0.00 | 0.00 | 89 | 1013.5 |
| 20260510093504 | 69 | 5 | 1.0 | 2.0 | 0.00 | 0.01 | 0.00 | 89 | 1013.4 |
| 20260510093004 | 69 | 356 | 1.0 | 2.0 | 0.00 | 0.01 | 0.00 | 89 | 1013.3 |
| 20260510092525 | 69 | 331 | 1.0 | 2.0 | 0.00 | 0.01 | 0.00 | 89 | 1013.2 |
| 20260510092004 | 69 | 196 | 1.0 | 5.0 | 0.00 | 0.01 | 0.00 | 89 | 1012.8 |
| 20260510091504 | 69 | 177 | 1.0 | 5.0 | 0.00 | 0.01 | 0.00 | 89 | 1012.6 |
| 20260510091004 | 69 | 181 | 1.0 | 5.0 | 0.00 | 0.01 | 0.00 | 88 | 1012.5 |
| 20260510090504 | 69 | 170 | 1.0 | 5.0 | 0.00 | 0.01 | 0.00 | 88 | 1012.5 |
| 20260510090004 | 69 | 185 | 1.0 | 4.0 | 0.00 | 0.01 | 0.00 | 88 | 1012.6 |
| 20260510085504 | 69 | 206 | 1.0 | 3.0 | 0.00 | 0.01 | 0.00 | 88 | 1012.6 |
| 20260510085003 | 69 | 203 | 1.0 | 2.0 | 0.00 | 0.01 | 0.00 | 88 | 1012.5 |
| 20260510084504 | 69 | 212 | 1.0 | 3.0 | 0.00 | 0.01 | 0.00 | 88 | 1012.4 |
| 20260510084004 | 69 | 202 | 1.0 | 4.0 | 0.00 | 0.01 | 0.00 | 88 | 1012.3 |
| 20260510083504 | 69 | 205 | 1.0 | 4.0 | 0.00 | 0.01 | 0.00 | 88 | 1012.5 |
| 20260510083004 | 69 | 184 | 1.0 | 4.0 | 0.00 | 0.01 | 0.00 | 88 | 1012.4 |
| 20260510082504 | 69 | 168 | 1.0 | 4.0 | 0.00 | 0.01 | 0.00 | 88 | 1012.4 |
| 20260510082004 | 68 | 184 | 1.0 | 4.0 | 0.00 | 0.01 | 0.00 | 88 | 1012.5 |
| 20260510081504 | 68 | 195 | 0.0 | 2.0 | 0.00 | 0.01 | 0.00 | 88 | 1012.5 |
| 20260510081004 | 68 | 204 | 0.0 | 2.0 | 0.00 | 0.01 | 0.00 | 88 | 1012.6 |
| 20260510080504 | 68 | 224 | 1.0 | 3.0 | 0.00 | 0.01 | 0.00 | 88 | 1012.8 |
| 20260510080004 | 68 | 218 | 2.0 | 4.0 | 0.00 | 0.01 | 0.00 | 89 | 1012.8 |
| 20260510075504 | 68 | 212 | 1.0 | 4.0 | 0.00 | 0.01 | 0.00 | 89 | 1012.7 |
| 20260510075004 | 68 | 199 | 0.0 | 4.0 | 0.00 | 0.01 | 0.00 | 89 | 1012.8 |
| 20260510074504 | 68 | 175 | 1.0 | 4.0 | 0.00 | 0.01 | 0.00 | 89 | 1012.9 |
| 20260510074004 | 68 | 162 | 1.0 | 4.0 | 0.00 | 0.01 | 0.00 | 89 | 1012.8 |
| 20260510073504 | 67 | 162 | 1.0 | 4.0 | 0.00 | 0.01 | 0.00 | 89 | 1012.8 |
| 20260510073004 | 67 | 151 | 0.0 | 3.0 | 0.00 | 0.01 | 0.00 | 89 | 1012.8 |
| 20260510072504 | 67 | 122 | 0.0 | 3.0 | 0.00 | 0.01 | 0.00 | 89 | 1012.7 |
| 20260510072004 | 67 | 42 | 0.0 | 1.0 | 0.00 | 0.01 | 0.00 | 89 | 1012.7 |
| 20260510071504 | 67 | 42 | 0.0 | 2.0 | 0.00 | 0.01 | 0.00 | 89 | 1012.7 |
| 20260510071004 | 67 | 42 | 0.0 | 2.0 | 0.00 | 0.01 | 0.00 | 89 | 1012.7 |
| 20260510070503 | 67 | 0 | 0.0 | 0.0 | 0.00 | 0.01 | 0.00 | 89 | 1012.8 |
| 20260510070024 | 67 | 0 | 0.0 | 0.0 | 0.00 | 0.01 | 0.00 | 90 | 1012.7 |
| 20260510065504 | 67 | 0 | 0.0 | 0.0 | 0.00 | 0.01 | 0.00 | 90 | 1012.6 |
| 20260510065003 | 67 | 0 | 0.0 | 0.0 | 0.00 | 0.01 | 0.00 | 90 | 1012.7 |
| 20260510064503 | 68 | 85 | 0.0 | 1.0 | 0.00 | 0.01 | 0.00 | 90 | 1012.5 |
| 20260510064025 | 68 | 102 | 0.0 | 2.0 | 0.00 | 0.01 | 0.00 | 90 | 1012.5 |
| 20260510063504 | 68 | 127 | 0.0 | 2.0 | 0.00 | 0.01 | 0.00 | 90 | 1012.4 |
| 20260510063003 | 68 | 143 | 1.0 | 3.0 | 0.00 | 0.01 | 0.00 | 90 | 1012.3 |
| 20260510062504 | 68 | 160 | 1.0 | 3.0 | 0.00 | 0.01 | 0.00 | 90 | 1012.4 |
| 20260510062003 | 68 | 175 | 1.0 | 3.0 | 0.00 | 0.01 | 0.00 | 90 | 1012.4 |
| 20260510061504 | 68 | 159 | 1.0 | 2.0 | 0.00 | 0.01 | 0.00 | 90 | 1012.5 |
| 20260510061003 | 68 | 145 | 1.0 | 3.0 | 0.00 | 0.01 | 0.00 | 90 | 1012.6 |
| 20260510060503 | 68 | 138 | 1.0 | 3.0 | 0.00 | 0.01 | 0.00 | 90 | 1012.7 |
| 20260510060004 | 68 | 112 | 1.0 | 2.0 | 0.00 | 0.01 | 0.00 | 90 | 1012.7 |
| 20260510055503 | 68 | 132 | 1.0 | 3.0 | 0.00 | 0.01 | 0.00 | 90 | 1012.8 |
| 20260510055004 | 68 | 153 | 1.0 | 4.0 | 0.00 | 0.01 | 0.00 | 90 | 1012.9 |
| 20260510054503 | 68 | 138 | 1.0 | 4.0 | 0.00 | 0.01 | 0.00 | 90 | 1012.9 |
| 20260510054003 | 68 | 125 | 1.0 | 4.0 | 0.00 | 0.01 | 0.00 | 90 | 1012.9 |
| 20260510053503 | 68 | 142 | 0.0 | 4.0 | 0.00 | 0.01 | 0.00 | 90 | 1012.8 |
| 20260510053003 | 68 | 128 | 0.0 | 1.0 | 0.00 | 0.01 | 0.00 | 91 | 1012.8 |
| 20260510052503 | 68 | 107 | 0.0 | 1.0 | 0.00 | 0.01 | 0.00 | 91 | 1012.8 |
| 20260510052024 | 68 | 88 | 1.0 | 2.0 | 0.00 | 0.01 | 0.00 | 91 | 1012.7 |
| 20260510051503 | 68 | 75 | 0.0 | 2.0 | 0.00 | 0.01 | 0.00 | 91 | 1012.8 |
| 20260510051003 | 68 | 0 | 0.0 | 0.0 | 0.00 | 0.01 | 0.00 | 91 | 1012.5 |
| 20260510050503 | 68 | 101 | 0.0 | 2.0 | 0.00 | 0.01 | 0.00 | 91 | 1012.5 |
| 20260510050004 | 68 | 101 | 0.0 | 2.0 | 0.00 | 0.01 | 0.00 | 91 | 1012.5 |
| 20260510045503 | 67 | 101 | 0.0 | 2.0 | 0.00 | 0.01 | 0.01 | 91 | 1012.5 |
| 20260510045004 | 67 | 101 | 0.0 | 1.0 | 0.00 | 0.01 | 0.01 | 92 | 1012.5 |
| 20260510044504 | 68 | 101 | 0.0 | 1.0 | 0.00 | 0.01 | 0.01 | 92 | 1012.6 |
| 20260510044003 | 67 | 101 | 0.0 | 1.0 | 0.00 | 0.01 | 0.01 | 92 | 1012.7 |
| 20260510043504 | 67 | 88 | 0.0 | 1.0 | 0.00 | 0.01 | 0.01 | 92 | 1012.7 |
| 20260510043004 | 67 | 88 | 0.0 | 1.0 | 0.00 | 0.01 | 0.01 | 92 | 1012.7 |
| 20260510042504 | 68 | 88 | 0.0 | 1.0 | 0.00 | 0.01 | 0.01 | 92 | 1012.8 |
| 20260510042004 | 68 | 88 | 0.0 | 1.0 | 0.00 | 0.01 | 0.01 | 92 | 1012.8 |
| 20260510041525 | 68 | 88 | 0.0 | 1.0 | 0.00 | 0.01 | 0.01 | 92 | 1012.7 |
| 20260510041003 | 68 | 88 | 0.0 | 1.0 | 0.00 | 0.01 | 0.01 | 92 | 1012.8 |
| 20260510040504 | 68 | 0 | 0.0 | 0.0 | 0.00 | 0.01 | 0.01 | 92 | 1012.8 |
| 20260510040004 | 68 | 88 | 0.0 | 1.0 | 0.00 | 0.01 | 0.01 | 92 | 1012.8 |
| 20260510035504 | 68 | 88 | 0.0 | 1.0 | 0.00 | 0.01 | 0.01 | 92 | 1012.8 |
| 20260510035003 | 68 | 0 | 0.0 | 0.0 | 0.00 | 0.01 | 0.01 | 93 | 1012.7 |
| 20260510034503 | 68 | 198 | 0.0 | 1.0 | 0.00 | 0.01 | 0.01 | 93 | 1012.9 |
| 20260510034003 | 68 | 198 | 0.0 | 1.0 | 0.00 | 0.01 | 0.01 | 93 | 1012.9 |
| 20260510033524 | 68 | 198 | 0.0 | 1.0 | 0.00 | 0.01 | 0.01 | 92 | 1012.9 |
| 20260510033025 | 68 | 219 | 0.0 | 1.0 | 0.00 | 0.01 | 0.01 | 92 | 1012.9 |
| 20260510032524 | 68 | 30 | 0.0 | 1.0 | 0.00 | 0.01 | 0.01 | 92 | 1013.0 |
| 20260510032004 | 68 | 73 | 0.0 | 2.0 | 0.00 | 0.01 | 0.01 | 93 | 1013.0 |
| 20260510031504 | 69 | 106 | 0.0 | 2.0 | 0.00 | 0.01 | 0.01 | 93 | 1012.9 |
| 20260510031004 | 69 | 115 | 1.0 | 3.0 | 0.00 | 0.01 | 0.01 | 93 | 1012.8 |
| 20260510030504 | 69 | 136 | 1.0 | 4.0 | 0.00 | 0.01 | 0.01 | 93 | 1012.8 |
| 20260510030004 | 69 | 151 | 2.0 | 4.0 | 0.00 | 0.01 | 0.01 | 93 | 1012.7 |
| 20260510025503 | 69 | 147 | 2.0 | 3.0 | 0.00 | 0.01 | 0.01 | 93 | 1012.7 |
| 20260510025027 | 69 | 150 | 1.0 | 3.0 | 0.00 | 0.01 | 0.01 | 93 | 1012.6 |
| 20260510024504 | 69 | 144 | 0.0 | 2.0 | 0.00 | 0.01 | 0.01 | 93 | 1012.6 |
| 20260510024003 | 69 | 127 | 1.0 | 2.0 | 0.00 | 0.01 | 0.01 | 93 | 1012.5 |
| 20260510023503 | 69 | 143 | 1.0 | 4.0 | 0.00 | 0.01 | 0.01 | 93 | 1012.5 |
| 20260510023004 | 69 | 148 | 1.0 | 4.0 | 0.00 | 0.01 | 0.01 | 93 | 1012.4 |
| 20260510022504 | 69 | 141 | 1.0 | 3.0 | 0.00 | 0.01 | 0.01 | 93 | 1012.3 |
| 20260510022003 | 69 | 128 | 1.0 | 3.0 | 0.00 | 0.01 | 0.01 | 92 | 1012.1 |
| 20260510021503 | 69 | 94 | 0.0 | 2.0 | 0.00 | 0.01 | 0.01 | 92 | 1012.1 |
| 20260510021003 | 69 | 101 | 1.0 | 3.0 | 0.00 | 0.01 | 0.01 | 93 | 1011.9 |
| 20260510020504 | 69 | 123 | 1.0 | 3.0 | 0.00 | 0.01 | 0.01 | 92 | 1012.0 |
| 20260510020024 | 69 | 116 | 1.0 | 2.0 | 0.00 | 0.01 | 0.01 | 92 | 1011.9 |
| 20260510015504 | 69 | 106 | 1.0 | 2.0 | 0.00 | 0.01 | 0.01 | 92 | 1011.8 |
| 20260510015003 | 70 | 114 | 1.0 | 3.0 | 0.00 | 0.01 | 0.01 | 92 | 1011.6 |
| 20260510014503 | 70 | 131 | 1.0 | 3.0 | 0.00 | 0.01 | 0.01 | 92 | 1011.6 |
| 20260510014003 | 70 | 172 | 1.0 | 3.0 | 0.00 | 0.01 | 0.01 | 92 | 1011.5 |
| 20260510013503 | 70 | 174 | 1.0 | 3.0 | 0.00 | 0.01 | 0.01 | 91 | 1011.4 |
| 20260510013003 | 70 | 161 | 1.0 | 5.0 | 0.00 | 0.01 | 0.01 | 91 | 1011.4 |
| 20260510012524 | 70 | 147 | 1.0 | 5.0 | 0.00 | 0.01 | 0.01 | 91 | 1011.5 |
| 20260510012003 | 71 | 133 | 2.0 | 4.0 | 0.00 | 0.01 | 0.01 | 90 | 1011.3 |
| 20260510011524 | 71 | 134 | 2.0 | 5.0 | 0.00 | 0.01 | 0.01 | 90 | 1011.3 |
| 20260510011003 | 71 | 122 | 2.0 | 5.0 | 0.00 | 0.01 | 0.01 | 89 | 1011.4 |
| 20260510010503 | 72 | 91 | 2.0 | 6.0 | 0.00 | 0.01 | 0.01 | 88 | 1011.1 |
| 20260510010003 | 72 | 94 | 2.0 | 6.0 | 0.00 | 0.01 | 0.01 | 87 | 1011.1 |
| 20260510005503 | 73 | 123 | 3.0 | 6.0 | 0.00 | 0.01 | 0.01 | 86 | 1011.0 |
| 20260510005003 | 74 | 129 | 2.0 | 5.0 | 0.00 | 0.01 | 0.01 | 86 | 1010.9 |
| 20260510004503 | 74 | 123 | 2.0 | 7.0 | 0.00 | 0.01 | 0.01 | 85 | 1010.8 |
| 20260510004003 | 74 | 104 | 2.0 | 7.0 | 0.00 | 0.01 | 0.01 | 84 | 1010.8 |
| 20260510003503 | 75 | 96 | 3.0 | 4.0 | 0.00 | 0.01 | 0.01 | 85 | 1010.6 |
| 20260510003004 | 75 | 115 | 2.0 | 5.0 | 0.00 | 0.01 | 0.01 | 84 | 1010.7 |
| 20260510002524 | 75 | 130 | 2.0 | 5.0 | 0.00 | 0.01 | 0.01 | 82 | 1010.8 |
| 20260510002003 | 76 | 159 | 1.0 | 5.0 | 0.00 | 0.01 | 0.01 | 81 | 1010.8 |
| 20260510001503 | 76 | 180 | 2.0 | 5.0 | 0.00 | 0.01 | 0.01 | 81 | 1010.7 |
| 20260510001003 | 76 | 174 | 2.0 | 6.0 | 0.00 | 0.01 | 0.01 | 80 | 1010.7 |
| 20260510000503 | 76 | 151 | 2.0 | 6.0 | 0.00 | 0.01 | 0.01 | 80 | 1010.5 |
| 20260510000024 | 77 | 128 | 3.0 | 9.0 | 0.00 | 0.01 | 0.01 | 80 | 1010.3 |
| 20260509235503 | 77 | 131 | 4.0 | 15.0 | 0.00 | 0.01 | 0.01 | 80 | 1010.3 |
| 20260509235003 | 78 | 132 | 4.0 | 10.0 | 0.00 | 0.01 | 0.01 | 81 | 1010.2 |
| 20260509234503 | 79 | 131 | 4.0 | 16.0 | 0.00 | 0.01 | 0.01 | 82 | 1009.9 |
| 20260509234003 | 80 | 128 | 2.0 | 16.0 | 0.00 | 0.01 | 0.01 | 87 | 1009.9 |
| 20260509233503 | 81 | 107 | 0.0 | 3.0 | 0.00 | 0.01 | 0.01 | 86 | 1009.7 |
| 20260509233003 | 81 | 0 | 0.0 | 0.0 | 0.00 | 0.01 | 0.01 | 85 | 1009.5 |
| 20260509232503 | 82 | 117 | 0.0 | 1.0 | 0.00 | 0.01 | 0.01 | 84 | 1009.4 |
| 20260509232003 | 82 | 117 | 0.0 | 1.0 | 0.00 | 0.01 | 0.01 | 83 | 1009.3 |
| 20260509231503 | 83 | 117 | 0.0 | 1.0 | 0.00 | 0.01 | 0.01 | 83 | 1009.2 |
| 20260509231003 | 84 | 0 | 0.0 | 0.0 | 0.00 | 0.01 | 0.01 | 82 | 1009.2 |
| 20260509230504 | 84 | 58 | 0.0 | 1.0 | 0.00 | 0.01 | 0.01 | 80 | 1009.1 |
| 20260509230004 | 84 | 52 | 0.0 | 1.0 | 0.00 | 0.01 | 0.01 | 80 | 1009.1 |
| 20260509225525 | 85 | 49 | 0.0 | 1.0 | 0.00 | 0.01 | 0.01 | 79 | 1009.0 |
| 20260509225004 | 85 | 49 | 0.0 | 1.0 | 0.00 | 0.01 | 0.01 | 77 | 1009.0 |
| 20260509224504 | 85 | 44 | 0.0 | 1.0 | 0.00 | 0.01 | 0.01 | 77 | 1008.9 |
| 20260509224004 | 85 | 37 | 0.0 | 1.0 | 0.00 | 0.01 | 0.01 | 76 | 1008.9 |
| 20260509223504 | 85 | 23 | 0.0 | 2.0 | 0.00 | 0.01 | 0.01 | 77 | 1008.9 |
| 20260509223004 | 86 | 25 | 1.0 | 3.0 | 0.00 | 0.01 | 0.01 | 78 | 1008.8 |
| 20260509222504 | 86 | 29 | 1.0 | 3.0 | 0.00 | 0.01 | 0.01 | 76 | 1008.8 |
| 20260509222004 | 86 | 73 | 1.0 | 2.0 | 0.00 | 0.01 | 0.01 | 76 | 1008.8 |
| 20260509221504 | 86 | 119 | 1.0 | 2.0 | 0.00 | 0.01 | 0.01 | 74 | 1008.8 |
| 20260509221004 | 86 | 89 | 1.0 | 2.0 | 0.00 | 0.01 | 0.01 | 74 | 1008.7 |
| 20260509220504 | 87 | 52 | 1.0 | 3.0 | 0.00 | 0.01 | 0.01 | 74 | 1008.6 |
| 20260509220004 | 86 | 326 | 1.0 | 3.0 | 0.00 | 0.01 | 0.01 | 74 | 1008.7 |
| 20260509215504 | 86 | 61 | 0.0 | 2.0 | 0.00 | 0.01 | 0.01 | 78 | 1008.7 |
| 20260509215004 | 85 | 41 | 1.0 | 2.0 | 0.00 | 0.01 | 0.01 | 78 | 1008.8 |
| 20260509214504 | 85 | 38 | 1.0 | 3.0 | 0.00 | 0.01 | 0.01 | 78 | 1008.7 |
| 20260509214004 | 85 | 353 | 2.0 | 4.0 | 0.00 | 0.01 | 0.01 | 77 | 1008.8 |
| 20260509213504 | 85 | 336 | 2.0 | 5.0 | 0.00 | 0.01 | 0.01 | 76 | 1008.8 |
| 20260509213004 | 86 | 335 | 1.0 | 5.0 | 0.00 | 0.01 | 0.01 | 78 | 1008.7 |
| 20260509212525 | 85 | 331 | 1.0 | 3.0 | 0.00 | 0.01 | 0.01 | 78 | 1008.9 |
| 20260509212004 | 84 | 329 | 1.0 | 2.0 | 0.00 | 0.01 | 0.01 | 80 | 1008.8 |
| 20260509211504 | 84 | 163 | 0.0 | 2.0 | 0.00 | 0.01 | 0.01 | 79 | 1009.0 |
| 20260509211004 | 84 | 145 | 1.0 | 2.0 | 0.00 | 0.01 | 0.01 | 80 | 1009.1 |
| 20260509210504 | 85 | 94 | 1.0 | 2.0 | 0.00 | 0.01 | 0.01 | 80 | 1009.1 |
| 20260509210004 | 84 | 84 | 1.0 | 3.0 | 0.00 | 0.01 | 0.01 | 81 | 1009.2 |
| 20260509205504 | 84 | 84 | 1.0 | 3.0 | 0.00 | 0.01 | 0.01 | 82 | 1009.4 |
| 20260509205004 | 83 | 10 | 1.0 | 2.0 | 0.00 | 0.01 | 0.01 | 83 | 1009.4 |
| 20260509204504 | 83 | 355 | 1.0 | 3.0 | 0.00 | 0.01 | 0.01 | 83 | 1009.4 |
| 20260509204004 | 83 | 349 | 1.0 | 3.0 | 0.00 | 0.01 | 0.01 | 81 | 1009.6 |
| 20260509203504 | 83 | 216 | 1.0 | 4.0 | 0.00 | 0.01 | 0.01 | 79 | 1009.7 |
| 20260509203004 | 83 | 178 | 2.0 | 5.0 | 0.00 | 0.01 | 0.01 | 79 | 1009.8 |
| 20260509202504 | 84 | 130 | 2.0 | 5.0 | 0.00 | 0.01 | 0.01 | 79 | 1009.8 |
| 20260509202025 | 84 | 109 | 2.0 | 5.0 | 0.00 | 0.01 | 0.01 | 80 | 1010.0 |
| 20260509201504 | 83 | 117 | 2.0 | 4.0 | 0.00 | 0.01 | 0.01 | 83 | 1010.0 |
| 20260509201004 | 82 | 126 | 2.0 | 4.0 | 0.00 | 0.01 | 0.01 | 85 | 1010.1 |
| 20260509200504 | 81 | 21 | 2.0 | 3.0 | 0.00 | 0.01 | 0.01 | 87 | 1010.0 |
| 20260509200025 | 81 | 358 | 2.0 | 3.0 | 0.00 | 0.01 | 0.01 | 86 | 1010.1 |
| 20260509195525 | 82 | 38 | 2.0 | 3.0 | 0.00 | 0.01 | 0.01 | 85 | 1010.2 |
| 20260509195004 | 82 | 143 | 1.0 | 5.0 | 0.00 | 0.01 | 0.01 | 83 | 1010.2 |
| 20260509194504 | 82 | 170 | 2.0 | 5.0 | 0.00 | 0.01 | 0.01 | 83 | 1010.1 |
| 20260509194004 | 82 | 172 | 2.0 | 5.0 | 0.00 | 0.01 | 0.01 | 84 | 1010.2 |
| 20260509193504 | 82 | 108 | 1.0 | 3.0 | 0.00 | 0.01 | 0.01 | 85 | 1010.2 |
| 20260509193004 | 81 | 87 | 1.0 | 3.0 | 0.00 | 0.01 | 0.01 | 85 | 1010.2 |
| 20260509192504 | 81 | 114 | 1.0 | 3.0 | 0.00 | 0.01 | 0.01 | 85 | 1010.3 |
| 20260509192004 | 81 | 118 | 1.0 | 2.0 | 0.00 | 0.01 | 0.01 | 85 | 1010.3 |
| 20260509191504 | 81 | 96 | 1.0 | 2.0 | 0.00 | 0.01 | 0.01 | 86 | 1010.3 |
| 20260509191004 | 81 | 316 | 1.0 | 4.0 | 0.00 | 0.01 | 0.01 | 85 | 1010.4 |
| 20260509190504 | 81 | 287 | 2.0 | 6.0 | 0.00 | 0.01 | 0.01 | 85 | 1010.5 |
| 20260509190004 | 81 | 216 | 2.0 | 6.0 | 0.00 | 0.01 | 0.01 | 87 | 1010.5 |
| 20260509185504 | 81 | 271 | 1.0 | 3.0 | 0.00 | 0.01 | 0.01 | 87 | 1010.6 |
| 20260509185025 | 80 | 304 | 1.0 | 3.0 | 0.00 | 0.01 | 0.01 | 88 | 1010.7 |
| 20260509184504 | 80 | 35 | 1.0 | 4.0 | 0.00 | 0.01 | 0.01 | 90 | 1010.6 |
| 20260509184004 | 79 | 22 | 1.0 | 4.0 | 0.00 | 0.01 | 0.01 | 91 | 1010.7 |
| 20260509183525 | 78 | 1 | 2.0 | 4.0 | 0.00 | 0.01 | 0.01 | 92 | 1010.8 |
| 20260509183004 | 78 | 1 | 2.0 | 4.0 | 0.00 | 0.01 | 0.01 | 92 | 1010.9 |
| 20260509182504 | 78 | 2 | 2.0 | 3.0 | 0.00 | 0.01 | 0.01 | 92 | 1011.0 |
| 20260509182004 | 77 | 343 | 2.0 | 3.0 | 0.00 | 0.01 | 0.01 | 92 | 1011.0 |
| 20260509181525 | 77 | 341 | 2.0 | 3.0 | 0.00 | 0.01 | 0.01 | 91 | 1011.1 |
| 20260509181004 | 77 | 8 | 2.0 | 3.0 | 0.00 | 0.01 | 0.01 | 91 | 1011.0 |
| 20260509180525 | 77 | 12 | 2.0 | 4.0 | 0.00 | 0.01 | 0.01 | 90 | 1011.2 |
| 20260509180004 | 78 | 348 | 2.0 | 5.0 | 0.00 | 0.01 | 0.01 | 89 | 1011.2 |
| 20260509175525 | 77 | 350 | 2.0 | 5.0 | 0.00 | 0.01 | 0.01 | 88 | 1011.3 |
| 20260509175004 | 77 | 13 | 1.0 | 4.0 | 0.00 | 0.01 | 0.01 | 87 | 1011.4 |
| 20260509174504 | 77 | 20 | 1.0 | 4.0 | 0.00 | 0.01 | 0.01 | 86 | 1011.4 |
| 20260509174004 | 77 | 81 | 1.0 | 3.0 | 0.00 | 0.01 | 0.01 | 86 | 1011.3 |
| 20260509173504 | 76 | 137 | 1.0 | 4.0 | 0.00 | 0.01 | 0.01 | 85 | 1011.4 |
| 20260509173004 | 76 | 153 | 1.0 | 4.0 | 0.00 | 0.01 | 0.01 | 85 | 1011.4 |
| 20260509172504 | 76 | 4 | 0.0 | 2.0 | 0.00 | 0.01 | 0.01 | 85 | 1011.5 |
| 20260509172004 | 75 | 319 | 0.0 | 2.0 | 0.00 | 0.01 | 0.01 | 85 | 1011.5 |
| 20260509171504 | 75 | 248 | 1.0 | 3.0 | 0.00 | 0.01 | 0.01 | 85 | 1011.6 |
| 20260509171004 | 75 | 253 | 1.0 | 3.0 | 0.00 | 0.01 | 0.01 | 84 | 1011.6 |
| 20260509170504 | 75 | 61 | 1.0 | 3.0 | 0.00 | 0.01 | 0.01 | 84 | 1011.8 |
| 20260509170025 | 74 | 89 | 1.0 | 3.0 | 0.00 | 0.04 | 0.01 | 84 | 1012.0 |
| 20260509165504 | 74 | 206 | 0.0 | 2.0 | 0.00 | 0.05 | 0.01 | 84 | 1012.1 |
| 20260509165004 | 74 | 237 | 0.0 | 2.0 | 0.00 | 0.05 | 0.01 | 84 | 1012.1 |
| 20260509164525 | 74 | 226 | 1.0 | 2.0 | 0.00 | 0.05 | 0.01 | 84 | 1012.2 |
| 20260509164004 | 74 | 197 | 1.0 | 2.0 | 0.00 | 0.06 | 0.01 | 84 | 1012.2 |
| 20260509163504 | 74 | 183 | 1.0 | 3.0 | 0.00 | 0.07 | 0.01 | 84 | 1012.3 |
| 20260509163004 | 74 | 214 | 1.0 | 3.0 | 0.00 | 0.07 | 0.01 | 84 | 1012.3 |
| 20260509162504 | 74 | 211 | 1.0 | 4.0 | 0.00 | 0.08 | 0.01 | 84 | 1012.3 |
| 20260509162004 | 74 | 169 | 2.0 | 5.0 | 0.00 | 0.19 | 0.01 | 84 | 1012.3 |
| 20260509161504 | 74 | 163 | 2.0 | 5.0 | 0.00 | 0.19 | 0.01 | 84 | 1012.2 |
| 20260509161025 | 74 | 166 | 1.0 | 5.0 | 0.00 | 0.20 | 0.01 | 84 | 1012.3 |
| 20260509160504 | 74 | 167 | 2.0 | 5.0 | 0.00 | 0.21 | 0.01 | 84 | 1012.3 |
| 20260509160004 | 74 | 161 | 2.0 | 5.0 | 0.00 | 0.24 | 0.01 | 84 | 1012.2 |
| 20260509155504 | 74 | 156 | 2.0 | 4.0 | 0.00 | 0.25 | 0.01 | 84 | 1011.9 |
| 20260509155004 | 74 | 143 | 1.0 | 4.0 | 0.00 | 0.26 | 0.01 | 84 | 1011.8 |
| 20260509154504 | 74 | 12 | 1.0 | 2.0 | 0.00 | 0.26 | 0.01 | 84 | 1011.9 |
| 20260509154025 | 74 | 319 | 1.0 | 4.0 | 0.00 | 0.27 | 0.01 | 84 | 1011.8 |
| 20260509153504 | 74 | 256 | 2.0 | 5.0 | 0.00 | 0.28 | 0.01 | 84 | 1011.5 |
| 20260509153004 | 74 | 171 | 3.0 | 5.0 | 0.00 | 0.29 | 0.01 | 84 | 1011.4 |
| 20260509152504 | 73 | 165 | 2.0 | 5.0 | 0.00 | 0.29 | 0.01 | 84 | 1011.2 |
| 20260509152025 | 73 | 178 | 1.0 | 4.0 | 0.00 | 0.29 | 0.01 | 84 | 1011.2 |
| 20260509151504 | 73 | 167 | 1.0 | 2.0 | 0.00 | 0.29 | 0.01 | 84 | 1011.2 |
| 20260509151025 | 73 | 151 | 0.0 | 2.0 | 0.00 | 0.29 | 0.01 | 84 | 1011.3 |
| 20260509150504 | 73 | 131 | 0.0 | 2.0 | 0.00 | 0.29 | 0.01 | 84 | 1011.4 |
| 20260509150004 | 73 | 0 | 0.0 | 0.0 | 0.00 | 0.29 | 0.01 | 84 | 1011.3 |
| 20260509145504 | 73 | 315 | 0.0 | 1.0 | 0.00 | 0.30 | 0.01 | 84 | 1011.4 |
| 20260509145004 | 72 | 325 | 0.0 | 2.0 | 0.00 | 0.31 | 0.01 | 84 | 1011.4 |
| 20260509144504 | 72 | 328 | 0.0 | 2.0 | 0.00 | 0.31 | 0.01 | 84 | 1011.4 |
| 20260509144004 | 72 | 347 | 0.0 | 1.0 | 0.00 | 0.32 | 0.01 | 84 | 1011.3 |
| 20260509143504 | 72 | 347 | 0.0 | 1.0 | 0.00 | 0.33 | 0.01 | 84 | 1011.3 |
| 20260509143004 | 72 | 347 | 0.0 | 2.0 | 0.00 | 0.34 | 0.01 | 85 | 1011.5 |
| 20260509142504 | 72 | 14 | 1.0 | 2.0 | 0.00 | 0.35 | 0.01 | 85 | 1011.6 |
| 20260509142004 | 72 | 76 | 0.0 | 2.0 | 0.00 | 0.35 | 0.01 | 85 | 1011.6 |
| 20260509141504 | 72 | 107 | 0.0 | 1.0 | 0.00 | 0.36 | 0.01 | 85 | 1011.7 |
| 20260509141004 | 72 | 0 | 0.0 | 0.0 | 0.00 | 0.36 | 0.01 | 85 | 1011.8 |
| 20260509140504 | 72 | 0 | 0.0 | 0.0 | 0.00 | 0.37 | 0.01 | 85 | 1011.8 |
| 20260509140005 | 72 | 107 | 0.0 | 1.0 | 0.00 | 0.38 | 0.01 | 85 | 1011.9 |
| 20260509135504 | 72 | 107 | 0.0 | 1.0 | 0.00 | 0.38 | 0.01 | 85 | 1011.9 |
| 20260509135004 | 72 | 107 | 0.0 | 1.0 | 0.00 | 0.40 | 0.01 | 85 | 1011.8 |
| 20260509134525 | 72 | 107 | 0.0 | 1.0 | 0.00 | 0.42 | 0.01 | 85 | 1012.0 |
| 20260509134004 | 72 | 182 | 0.0 | 1.0 | 0.00 | 0.42 | 0.01 | 85 | 1011.9 |
| 20260509133504 | 72 | 182 | 0.0 | 1.0 | 0.00 | 0.42 | 0.01 | 85 | 1012.0 |
| 20260509133004 | 72 | 185 | 0.0 | 2.0 | 0.00 | 0.42 | 0.01 | 85 | 1012.0 |
| 20260509132504 | 72 | 187 | 0.0 | 2.0 | 0.00 | 0.42 | 0.01 | 85 | 1012.0 |
| 20260509132004 | 72 | 188 | 0.0 | 1.0 | 0.00 | 0.42 | 0.01 | 85 | 1011.9 |
| 20260509131504 | 72 | 169 | 0.0 | 3.0 | 0.00 | 0.42 | 0.01 | 85 | 1011.9 |
| 20260509131004 | 72 | 168 | 1.0 | 3.0 | 0.00 | 0.42 | 0.01 | 85 | 1011.8 |
| 20260509130504 | 72 | 165 | 1.0 | 3.0 | 0.00 | 0.42 | 0.01 | 85 | 1011.5 |
| 20260509130004 | 72 | 165 | 1.0 | 2.0 | 0.00 | 0.42 | 0.01 | 85 | 1011.6 |
| 20260509125504 | 71 | 192 | 0.0 | 1.0 | 0.00 | 0.42 | 0.01 | 85 | 1011.5 |
| 20260509125004 | 71 | 225 | 0.0 | 1.0 | 0.00 | 0.42 | 0.01 | 85 | 1011.5 |
| 20260509124504 | 71 | 170 | 1.0 | 3.0 | 0.00 | 0.42 | 0.01 | 86 | 1011.4 |
| 20260509124004 | 71 | 164 | 1.0 | 4.0 | 0.00 | 0.42 | 0.01 | 86 | 1011.3 |
| 20260509123525 | 71 | 160 | 1.0 | 4.0 | 0.00 | 0.42 | 0.01 | 86 | 1011.3 |
| 20260509123004 | 71 | 162 | 1.0 | 3.0 | 0.00 | 0.42 | 0.01 | 86 | 1011.4 |
| 20260509122504 | 71 | 163 | 0.0 | 3.0 | 0.00 | 0.42 | 0.01 | 86 | 1011.3 |
| 20260509122004 | 71 | 0 | 0.0 | 0.0 | 0.00 | 0.42 | 0.01 | 86 | 1011.3 |
| 20260509121504 | 71 | 324 | 0.0 | 1.0 | 0.00 | 0.42 | 0.01 | 86 | 1011.2 |
| 20260509121004 | 71 | 324 | 0.0 | 1.0 | 0.00 | 0.42 | 0.01 | 86 | 1011.2 |
| 20260509120504 | 70 | 0 | 0.0 | 0.0 | 0.00 | 0.42 | 0.01 | 86 | 1011.2 |